STARLINK-35786, 67040

Orbit data source: Space-Track

STARLINK-35786, 67040 is a payload satellite owned by SpaceX/Seattle (US) in LEO that was launched on Thu, 11 Dec 2025 UTC via an FALCON 9 launch vehicle from the Air Force Eastern Test Range (AFETR). Payload-class satellites include a variety of spacecraft equipped with specific instruments for various scientific and technological missions. These include communications satellites like Starlink; space stations such as the ISS; scientific satellites like the Hubble; Earth observation satellites from companies like Planet Labs, Umbra, and HawkEye 360; GPS; miniature CubeSats for education and research; and military/defense satellites.

Loading next visibility...
Identifier
67040, 2025-294L
Orbit
LEO
Country
Flag of USUS
Related business
Manufacturer
SpaceX/Seattle
Mission
Operational Commercial Communications
Bus & Motor
STARLINK V2MO, Unknown motor
Mass
575 kg wet, ~530 kg dry
Launch date (UTC)
2025-12-11 (6 months ago)
Launch vehicle
FALCON 9
Launch site
Air Force Eastern Test Range (AFETR)
Object type
Payload
Rocket body
Debris
Shape & HBR
Box + 2 Pan, 17.7 m
Radar Cross Section
36.964 m², Large (>1 m²)

Expand to show TLE details & history
Last TLE update: 19 hours ago

TLE from 19 hours ago
0 STARLINK-35786
1 67040U 25294L   26171.06417575  .00019057  00000-0  69987-3 0  9995
2 67040  42.9996 180.1314 0001556 275.9702  84.0972 15.27597954 30451
Epoch: 2026-06-20T01:32Z
TLE epoch observation values (Epoch: 2026-06-20T01:32:24.784Z)
Latitude
-0.00005°
Longitude
-111.25609°
Altitude
482.661 km
Speed
7.626 km/s
True Right ascension
12h 00m 31s
True Declination
0° 00' 00"
Sunlit
Object was in daylight at epoch
Visualization orbit readout
Latitude
Unknown
Longitude
Unknown
Altitude
Unknown
Speed
Unknown
Apparent Right ascension
Unknown
Apparent Declination
Unknown
Sunlit
N/A
Visualization observer readout
Local Sidereal Time
07:13:40
Azimuth
Unknown
Elevation
Unknown
Doppler factor
Unknown
Orbital elements
Apogee altitude
486.008 km
Perigee altitude
483.873 km
Semi-major axis
6,863.078 km
Eccentricity
0.00016
Inclination
42.9996°
RAAN
180.1314°
Arg. of periapsis
275.9702°
True anomaly
84.11494°
Mean anomaly
84.0972°
Eccentric anomaly
84.10607°
Mean motion
3.81737 °/min
Orbital period
94.31 mins
BSTAR
0.00069987
Loading maneuver chart data...
Computing Atmospheric mass density...
Loading historical data...
Loading historical data...
Loading historical data...
Loading historical data...
Loading historical data...
Loading historical data...
Loading historical data...

Documentation

Showing up to 5 results
|